Flag for Portugal Weather past 2 weeks in Loures, Portugal

Now
57 °F

Passing clouds.


Feels Like: 54 °F
Forecast: N/A
Wind: 15 mph from North

Location: Lisbon Portela Airport

Current Time: Jan 28, 2015 at 3:04:41 PM

Latest Report: Jan 28, 2015 at 2:00 PM


Visibility: N/A

Pressure: 30.30 "Hg

Humidity: 72%

Dew point: 48 °F

Location of LouresLocation

Historic Weather in Loures — Graph

°F

Loures temperature yesterday

Maximum temperature yesterday: 63 °F (at 1:30 PM)
Minimum temperature yesterday: 48 °F (at 7:00 AM)
Average temperature yesterday: 53 °F

Past Weeks' High & Low Weather Summary

 TemperatureHumidityPressure
High63 °F (Jan 25, 12:30 PM)100% (Jan 13, 11:30 PM)30.45 "Hg (Jan 13, 11:30 PM)
Low39 °F (Jan 25, 5:00 AM)45% (Jan 27, 3:00 PM)29.80 "Hg (Jan 18, 3:30 AM)
Average51 °F82%30.20 "Hg
* Reported Jan 13 1:00 PM — Jan 28 1:45 PM, Loures, Weather by CustomWeather, © 2014

Note: Actual official high and low records may vary slightly from our data, if they occured in-between our weather recording intervals... More about our weather records

Advertising

Loures weather history for previous 24 hours

 ConditionsComfort  
Time TempWeatherWind HumidityBarometerVisibility
1:45 PM
Jan 28
57 °FPassing clouds.21 mph72%30.30 "HgN/A
1:30 PM57 °FPassing clouds.29 mph72%30.33 "HgN/A
1:00 PM57 °FPassing clouds.17 mph72%30.36 "HgN/A
12:30 PM57 °FPassing clouds.16 mph67%30.36 "HgN/A
12:00 PM57 °FPassing clouds.16 mph67%30.36 "HgN/A
11:30 AM57 °FPassing clouds.10 mph67%30.36 "HgN/A
11:00 AM54 °FPassing clouds.10 mph72%30.36 "HgN/A
10:30 AM54 °FPassing clouds.15 mph72%30.36 "HgN/A
10:00 AM52 °FPassing clouds.13 mph77%30.36 "HgN/A
9:30 AM52 °FPassing clouds.12 mph77%30.36 "HgN/A
9:00 AM52 °FScattered clouds.14 mph77%30.36 "HgN/A
8:30 AM52 °FPartly sunny.14 mph82%30.36 "HgN/A
8:00 AM50 °FPassing clouds.14 mph88%30.33 "HgN/A
7:30 AM50 °FPassing clouds.14 mph88%30.33 "HgN/A
7:00 AM50 °FPassing clouds.17 mph88%30.33 "HgN/A
6:30 AM52 °FPassing clouds.18 mph82%30.33 "HgN/A
6:00 AM52 °FPassing clouds.16 mph82%30.33 "HgN/A
5:30 AM52 °FPassing clouds.14 mph82%30.33 "HgN/A
5:00 AM52 °FPassing clouds.9 mph82%30.33 "HgN/A
4:30 AM52 °FPassing clouds.12 mph88%30.33 "HgN/A
4:00 AM52 °FPassing clouds.7 mph88%30.33 "HgN/A
3:30 AM52 °FPassing clouds.15 mph88%30.36 "HgN/A
3:00 AM52 °FPassing clouds.13 mph82%30.36 "HgN/A
2:30 AM52 °FPassing clouds.15 mph82%30.36 "HgN/A
2:00 AM52 °FPassing clouds.15 mph88%30.36 "HgN/A
1:30 AM52 °FPassing clouds.20 mph88%30.36 "HgN/A
1:00 AM52 °FPassing clouds.20 mph88%30.36 "HgN/A
12:55 AM52 °FPassing clouds.20 mph82%30.36 "HgN/A
12:00 AM52 °FPassing clouds.14 mph88%30.39 "HgN/A
11:30 PM
Jan 27
52 °FPassing clouds.13 mph88%30.39 "HgN/A
11:00 PM52 °FPassing clouds.13 mph82%30.39 "HgN/A
10:30 PM52 °FPassing clouds.17 mph82%30.39 "HgN/A
10:00 PM52 °FPassing clouds.14 mph82%30.36 "HgN/A
9:00 PM52 °FClear.15 mph88%30.36 "Hg10 mi
8:30 PM50 °FClear.13 mph88%30.36 "Hg10 mi
8:00 PM52 °FClear.15 mph82%30.39 "Hg10 mi
7:30 PM52 °FClear.13 mph82%30.36 "Hg10 mi
7:00 PM52 °FPassing clouds.13 mph82%30.36 "HgN/A
6:30 PM54 °FPassing clouds.13 mph77%30.36 "HgN/A
6:00 PM54 °FPassing clouds.14 mph77%30.36 "HgN/A
5:30 PM55 °FSunny.13 mph72%30.36 "Hg10 mi
5:00 PM57 °FSunny.16 mph67%30.36 "Hg10 mi
4:30 PM59 °FSunny.13 mph59%30.36 "Hg10 mi
4:00 PM61 °FPassing clouds.9 mph48%30.36 "HgN/A
3:30 PM63 °FSunny.12 mph49%30.36 "Hg10 mi
3:00 PM63 °FSunny.9 mph45%30.36 "Hg10 mi
Weather by CustomWeather, © 2014

See weather overviewHow to use our weather pages